This is the latest recevied weather packets stored in our database for station/object KK6MIG-13. If no packets are shown the sender has not sent any weather packets the latest 1 day(s).
| Time | Temp. | Humidity | Pressure | Rain* | Wind** | Luminosity | Snow |
|---|---|---|---|---|---|---|---|
| 1778031446 | 14.44° C | 1% | 1014.8 hPa | 0 mm | 4.47 m/s, 221° | 258 W/m² | - |
| 1778031386 | 15° C | 1% | 1014.7 hPa | 0 mm | 4.47 m/s, 224° | 206 W/m² | - |
| 1778031326 | 14.44° C | 1% | 1014.7 hPa | 0 mm | 4.02 m/s, 231° | 265 W/m² | - |
| 1778031266 | 14.44° C | 1% | 1014.8 hPa | 0 mm | 4.02 m/s, 257° | 183 W/m² | - |
| 1778031206 | 14.44° C | 1% | 1014.7 hPa | 0 mm | 4.02 m/s, 277° | 225 W/m² | - |
| 1778031146 | 15° C | 1% | 1014.8 hPa | 0 mm | 4.02 m/s, 232° | 225 W/m² | - |
| 1778031086 | 15° C | 1% | 1014.8 hPa | 0 mm | 3.58 m/s, 234° | 139 W/m² | - |
| 1778031027 | 15° C | 1% | 1014.8 hPa | 0 mm | 3.58 m/s, 225° | 121 W/m² | - |
| 1778030966 | 15° C | 1% | 1014.8 hPa | 0 mm | 3.58 m/s, 225° | 107 W/m² | - |
| 1778030906 | 15° C | 1% | 1014.8 hPa | 0 mm | 3.58 m/s, 232° | 93 W/m² | - |
| 1778030846 | 15° C | 1% | 1014.8 hPa | 0 mm | 3.58 m/s, 237° | 214 W/m² | - |
| 1778030786 | 15° C | 1% | 1014.8 hPa | 0 mm | 3.58 m/s, 238° | 137 W/m² | - |
| 1778030726 | 15° C | 1% | 1014.8 hPa | 0 mm | 4.02 m/s, 254° | 137 W/m² | - |
| 1778030665 | 15° C | 1% | 1014.8 hPa | 0 mm | 4.02 m/s, 263° | 137 W/m² | - |
| 1778030602 | 15° C | 1% | 1014.8 hPa | 0 mm | 4.02 m/s, 255° | 181 W/m² | - |
| 1778030542 | 15° C | 1% | 1014.7 hPa | 0 mm | 4.02 m/s, 251° | 262 W/m² | - |
| 1778030482 | 15° C | 1% | 1014.7 hPa | 0 mm | 4.02 m/s, 238° | 236 W/m² | - |
| 1778030422 | 15° C | 1% | 1014.7 hPa | 0 mm | 4.02 m/s, 244° | 236 W/m² | - |
| 1778030362 | 15° C | 1% | 1014.7 hPa | 0 mm | 4.02 m/s, 229° | 236 W/m² | - |
| 1778030302 | 15° C | 1% | 1014.7 hPa | 0 mm | 4.02 m/s, 270° | 236 W/m² | - |
| 1778030242 | 15° C | 1% | 1014.7 hPa | 0 mm | 4.02 m/s, 275° | 225 W/m² | - |
| 1778030182 | 15° C | 1% | 1014.7 hPa | 0 mm | 4.02 m/s, 255° | 151 W/m² | - |
| 1778030131 | 15° C | 1% | 1014.7 hPa | 0 mm | 4.02 m/s, 234° | 246 W/m² | - |
| 1778030128 | 15° C | 1% | 1014.7 hPa | 0 mm | 4.02 m/s, 253° | 186 W/m² | - |
| 1778030002 | 15° C | 1% | 1014.7 hPa | 0 mm | 4.02 m/s, 244° | 179 W/m² | - |
* Rain latest hour (hover to see other rain measurements)
** Current wind speed in m/s (hover to see current wind gust speed)